Location: Warszawa
(52.2500°N, 21.0000°E)
Time: 11:05:08
(UTC+01:00)

Explorer 11/Cluster Stage 4 - Visible Passes

Search period start: 31 January 2023 00:00
Search period end: 10 February 2023 00:00
Orbit: 466 x 1244 km, 28.8° (Epoch: 30 January)

Date Brightness Start Highest point End Pass type
(mag) Time Alt. Az. Time Alt. Az. Time Alt. Az.
01 Feb 10.0 06:24:48 10° S 06:25:09 10° S 06:25:31 10° S visible
02 Feb 9.8 06:09:57 10° S 06:11:33 11° S 06:13:09 10° SSE visible
03 Feb 9.7 05:55:51 10° S 05:57:56 11° S 06:00:01 10° SSE visible
04 Feb 9.7 05:42:00 10° SSW 05:44:19 11° S 05:46:38 10° SSE visible
05 Feb 9.6 05:28:17 10° SSW 05:30:41 11° S 05:33:06 10° SSE visible
06 Feb 9.5 05:14:42 10° SSW 05:17:02 11° S 05:19:24 10° SSE visible
07 Feb 9.5 05:01:17 10° SSW 05:03:24 11° S 05:05:33 10° SSE visible
08 Feb 9.4 04:48:03 10° SSW 04:49:45 11° S 04:51:30 10° SSE visible
09 Feb 9.4 04:35:13 10° S 04:36:08 10° S 04:37:02 10° S visible
